Location: Neuvy Saint Sepulchre
(46.5953°N, 1.8122°E)
Time: 20:27:44
(UTC+01:00)

ISS - Pass Details

Date: 26 March 2023
Orbit: 414 x 422 km, 51.6° (Epoch: 25 March)

Event Time Altitude Azimuth Distance (km) Brightness Sun altitude
Rises 22:52:59 0° 296° (WNW) 2,357 1.3 -26.4°
Reaches altitude 10° 22:55:05 10° 296° (WNW) 1,491 0.0 -26.6°
Enters shadow 22:56:31 24° 296° (WNW) 917 -1.4 -26.8°
